Home   Weather   Khabarovsk   Past weeks

Flag for Russia Past Weather in Khabarovsk, Russia — Yesterday and Last 2 Weeks

Now
-18 °F

Clear.


Feels Like: -18 °F
Forecast: -23 / -2 °F
Wind: 1 mph from North

Location: Habarovsk

Current Time: Jan 21, 2017 at 10:26:00 am

Latest Report: Jan 21, 2017 at 9:30 am


Visibility: 4 mi

Pressure: 30.27 "Hg

Humidity: 75%

Dew Point: -24 °F

Location of KhabarovskLocation

Past Weather in Khabarovsk — Graph

°F

Khabarovsk Temperature Yesterday

Maximum temperature yesterday: 3 °F (at 12:00 am)
Minimum temperature yesterday: -11 °F (at 9:00 am)
Average temperature yesterday: -3 °F

High & Low Weather Summary for the Past Weeks

 TemperatureHumidityPressure
High21 °F (Jan 15, 7:00 pm)100% (Jan 15, 3:30 pm)30.39 "Hg (Jan 15, 3:30 pm)
Low-20 °F (Jan 13, 7:00 am)45% (Jan 10, 12:30 pm)29.36 "Hg (Jan 12, 9:30 am)
Average3 °F75%30.00 "Hg
* Reported Jan 6 9:00 am — Jan 21 9:00 am, Khabarovsk, Weather by CustomWeather, © 2017

Note: Actual official high and low records may vary slightly from our data, if they occured in-between our weather recording intervals... More about our weather records

Advertising

Khabarovsk Weather History for the Previous 24 Hours

Scroll right to see more
 ConditionsComfort  
Time TempWeatherWind HumidityBarometerVisibility
9:00 am
Sat, Jan 21
-18 °FSunny.1 mph69%30.27 "Hg10 mi
8:30 am-17 °FClear.1 mph69%30.27 "Hg10 mi
8:00 am-17 °FExtremely cold.N/A76%30.27 "HgN/A
7:30 am-18 °FClear.3 mph75%30.27 "Hg10 mi
7:00 am-18 °FClear.3 mph69%30.27 "Hg10 mi
6:30 am-15 °FPassing clouds.No wind76%30.24 "HgN/A
6:00 am-15 °FPassing clouds.No wind76%30.24 "HgN/A
5:30 am-17 °FPassing clouds.1 mph76%30.24 "HgN/A
5:00 am-15 °FPassing clouds.3 mph76%30.24 "HgN/A
4:30 am-17 °FPassing clouds.3 mph76%30.24 "HgN/A
4:00 am-17 °FPassing clouds.1 mph76%30.24 "HgN/A
3:30 am-17 °FClear.3 mph76%30.24 "Hg10 mi
3:00 am-17 °FClear.1 mph83%30.24 "Hg10 mi
2:30 am-13 °FClear.3 mph76%30.24 "Hg10 mi
2:00 am-13 °FClear.1 mph76%30.24 "Hg10 mi
1:30 am-15 °FClear.3 mph76%30.24 "Hg10 mi
1:00 am-13 °FClear.3 mph76%30.24 "Hg10 mi
12:30 am-9 °FPassing clouds.3 mph77%30.24 "HgN/A
12:00 am-9 °FClear.6 mph77%30.24 "Hg10 mi
11:30 pm
Fri, Jan 20
-6 °FClear.3 mph70%30.21 "Hg10 mi
11:00 pm-6 °FClear.6 mph64%30.24 "Hg10 mi
10:30 pm-4 °FClear.10 mph71%30.21 "Hg10 mi
10:00 pm-2 °FClear.13 mph65%30.21 "Hg10 mi
9:30 pm-2 °FClear.15 mph65%30.21 "Hg10 mi
9:00 pm-2 °FPassing clouds.13 mph65%30.21 "HgN/A
8:30 pm-2 °FPassing clouds.13 mph65%30.21 "HgN/A
8:00 pm-2 °FFrigid.N/A65%30.21 "HgN/A
7:30 pm-2 °FPassing clouds.8 mph71%30.21 "HgN/A
7:00 pm-2 °FPassing clouds.8 mph71%30.18 "HgN/A
6:30 pm0 °FPassing clouds.10 mph65%30.18 "HgN/A
6:00 pm0 °FPassing clouds.8 mph65%30.18 "HgN/A
5:30 pm-2 °FPassing clouds.6 mph71%30.18 "HgN/A
5:00 pm0 °FSunny.6 mph71%30.18 "Hg10 mi
4:30 pm1 °FSunny.6 mph65%30.15 "Hg10 mi
4:00 pm1 °FSunny.8 mph71%30.15 "Hg10 mi
3:30 pm3 °FSunny.6 mph66%30.15 "Hg10 mi
3:00 pm3 °FPassing clouds.3 mph72%30.12 "HgN/A
2:30 pm3 °FSunny.1 mph78%30.12 "Hg10 mi
2:00 pm1 °FPassing clouds.3 mph78%30.12 "HgN/A
1:30 pm0 °FSunny.1 mph84%30.12 "Hg10 mi
1:00 pm1 °FSunny.No wind85%30.15 "Hg10 mi
12:30 pm1 °FScattered clouds.No wind85%30.15 "HgN/A
12:00 pm-2 °FPartly sunny.1 mph84%30.15 "Hg4 mi
11:30 am-2 °FScattered clouds.1 mph84%30.15 "Hg4 mi
11:00 am-4 °FClear.1 mph77%30.15 "Hg4 mi
10:30 am-6 °FClear.1 mph84%30.15 "Hg4 mi
10:00 am-9 °FIce fog.3 mph84%30.15 "Hg2 mi
Weather by CustomWeather, © 2017

See weather overviewHow to use our weather pages